Location: Arrien
(43.3167°N, 0.1500°W)
Time: 12:26:28
(UTC+00:00)

Cosmos 2082 - Pass Details

Date: 26 May 2022
Orbit: 835 x 853 km, 71.0° (Epoch: 28 June)

Event Time Altitude Azimuth Distance (km) Brightness Sun altitude
Rises 19:51:40 0° 341° (NNW) 3,402 7.8 -4.3°
Reaches altitude 10° 19:54:21 10° 350° (N) 2,461 6.9 -4.7°
Maximum altitude 19:59:29 35° 56° (NE) 1,328 4.6 -5.5°
Drops below altitude 10° 20:04:35 10° 121° (ESE) 2,442 5.4 -6.2°
Enters shadow 20:05:13 - 124° (SE) 2,658 5.6 -6.3°
